STARLINK-31441, 60091

Orbit data source: Space-Track

STARLINK-31441, 60091 is a payload satellite owned by SpaceX/Seattle (US) in LEO that was launched on Sun, 23 Jun 2024 UTC via an FALCON 9 launch vehicle from the Air Force Eastern Test Range (AFETR). Payload-class satellites include a variety of spacecraft equipped with specific instruments for various scientific and technological missions. These include communications satellites like Starlink; space stations such as the ISS; scientific satellites like the Hubble; Earth observation satellites from companies like Planet Labs, Umbra, and HawkEye 360; GPS; miniature CubeSats for education and research; and military/defense satellites.

Loading next visibility...
Identifier
60091, 2024-117A
Orbit
LEO
Country
Flag of USUS
Related business
Manufacturer
SpaceX/Seattle
Mission
Operational Commercial Communications
Bus & Motor
STARLINK V2M, Unknown motor
Mass
730 kg wet, ~700 kg dry
Launch date (UTC)
2024-06-23 (2 years ago)
Launch vehicle
FALCON 9
Launch site
Air Force Eastern Test Range (AFETR)
Object type
Payload
Rocket body
Debris
Shape & HBR
Box + 2 Pan, 17.7 m
Radar Cross Section
33.884 m², Large (>1 m²)

Expand to show TLE details & history
Last TLE update: 1 day ago

TLE from 1 day ago
0 STARLINK-31441
1 60091U 24117A   26170.68541247 -.00000416  00000-0 -19091-5 0  9992
2 60091  53.1611 283.2800 0001204 107.7944 252.3188 15.30200324112505
Epoch: 2026-06-19T16:26Z
TLE epoch observation values (Epoch: 2026-06-19T16:26:59.637Z)
Latitude
-0.00003°
Longitude
128.62065°
Altitude
476.365 km
Speed
7.629 km/s
True Right ascension
18h 53m 07s
True Declination
0° 00' 00"
Sunlit
Object was in full shadow at epoch
Visualization orbit readout
Latitude
Unknown
Longitude
Unknown
Altitude
Unknown
Speed
Unknown
Apparent Right ascension
Unknown
Apparent Declination
Unknown
Sunlit
N/A
Visualization observer readout
Local Sidereal Time
07:12:40
Azimuth
Unknown
Elevation
Unknown
Doppler factor
Unknown
Orbital elements
Apogee altitude
476.296 km
Perigee altitude
474.645 km
Semi-major axis
6,853.607 km
Eccentricity
0.00012
Inclination
53.1611°
RAAN
283.28°
Arg. of periapsis
107.7944°
True anomaly
252.30566°
Mean anomaly
252.3188°
Eccentric anomaly
252.31223°
Mean motion
3.82529 °/min
Orbital period
94.11 mins
BSTAR
-0.0000019091
Loading maneuver chart data...
Computing Atmospheric mass density...
Loading historical data...
Loading historical data...
Loading historical data...
Loading historical data...
Loading historical data...
Loading historical data...
Loading historical data...

Documentation

Showing up to 5 results
|